www.pogodaiklimat.ru

Погода и климат >> Архив погоды >> Россия >> Ненецкий АО >> Шойна


АРХИВ ПОГОДЫ в Шойне

Время (UTC), дата Ветер
(напр.,м/с)
 
Видим.   Явления Облачность Т
(С)
Тd
(С)
f
(%)
Тe
(С)
Тes
(С)
Комфортность P
(гПа)
Po
(гПа)
Тmin
(С)
Tmax
(С)
R
(мм)
R24
(мм)
S
(см)
06 19.06 СЗ 3 20 км 8/6 600 м
[Cu Sc Cs]
+4.7 +0.8 76 +1 +4 1008.7 1008.1
09 19.06 З 2 20 км 8/3 600 м
[Sc Ac trans Cc]
+5.7 +0.1 67 +4 +9 1008.0 1007.4
12 19.06 З 1 20 км в посл. час ливневой дождь 10/10 300 м
[Cb calv]
+4.7 +2.4 85 +3 +3 1007.8 1007.2
15 19.06 СВ 3 10 км слаб. дождь 10/6 300 м
[Frnb As op]
+4.8 +4.2 96 +1 +1 1007.2 1006.6 +6.1 0.9
18 19.06 СВ 5 10 км слаб. дождь 10/8 300 м
[Frnb As op]
+4.8 +4.4 97 -0 -0 1006.4 1005.8
21 19.06 СВ 6 20 км в посл. час дождь 10/10 600 м
[Sc]
+3.7 +3.0 95 -2 -2 1006.8 1006.2
00 20.06 С 5 20 км {дождь} 10/10 300 м
[Cb calv]
+3.9 +2.6 91 -1 -1 1007.3 1006.7
03 20.06 С 5 20 км 9/9 300 м
[Cb calv]
+4.2 +2.8 91 -1 -1 1008.4 1007.8 +3.6 0.8
06 20.06 СЗ 5 20 км 10/10 300 м
[Cb calv]
+4.2 +1.7 84 -1 -1 1009.8 1009.2
09 20.06 СЗ 5 20 км 10/10 300 м
[Cb calv]
+4.5 +1.6 81 -0 -0 1011.1 1010.5
12 20.06 СЗ 6 20 км 9/8 300 м
[Cb calv Ac trans]
+5.5 +2.6 82 +1 +1 1012.4 1011.8
15 20.06 З 7 20 км 5/1 600 м
[Sc Cc]
+5.5 +2.7 82 0 +1 1012.6 1012.0 +6.1
21 20.06 СЗ 7-10
{11}
20 км {ливн. осадки} 9/9 600 м
[Sc]
+4.7 +4.0 95 -1 -1 1012.4 1011.8
00 21.06 СЗ 8-11
{11}
20 км {ливн. осадки} 8/8 600 м
[Sc]
+4.4 +2.1 85 -2 -2 1013.4 1012.7
03 21.06 СЗ 7-10
{11}
20 км 8/8 600 м
[Sc]
+4.4 +1.8 83 -1 -1 1014.0 1013.4 +4.3 0.0
06 21.06 СЗ 5
{11}
20 км 10/10 600 м
[Sc]
+4.8 +1.1 77 0 0 1014.8 1014.1 +4.1
09 21.06 СЗ 6 20 км 10/10 600 м
[Sc]
+4.9 +1.1 76 -0 -0 1015.6 1015.0
12 21.06 СЗ 4 20 км 3/3 600 м
[Cu hum Cc]
+5.0 +1.5 78 +1 +5 1015.3 1014.7
15 21.06 СЗ 2 20 км 8/0
[Ac trans Cc]
+5.0 +1.6 79 +2 +5 1014.4 1013.8 +5.7
18 21.06 С 1 20 км 8/0
[Ac trans Cc]
+4.9 +2.3 83 +4 +4 1013.2 1012.6
21 21.06 СВ 2 20 км 8/3 600 м
[Sc Ac trans Cc]
+3.9 +2.7 92 +1 +1 1012.2 1011.6
00 22.06 В 6 20 км 10/0
[Ac trans Cc]
+2.8 +2.6 99 -3 -3 1011.0 1010.4
03 22.06 В 6 20 км 10/0
[Ac As]
+4.3 +3.9 97 -1 -1 1010.0 1009.4 +2.7
06 22.06 В 5 20 км 8/0
[]
+9.3 +4.7 73 +6 +9 1009.0 1008.3
09 22.06 СЗ 3 20 км 9/9 600 м
[Sc]
+9.2 +5.6 78 +7 +8 1009.3 1008.7
12 22.06 С 3 20 км 9/6 600 м
[Sc Ac trans]
+9.8 +6.0 77 +8 +9 1009.1 1008.4
15 22.06 ЮВ 4 н/о {дождь} н/о +10.7 +6.6 76 +8 +9 1008.8 1008.2 +12.7 0.0
18 22.06 В 6 20 км {дождь} 10/5 600 м
[Cu Sc Ac As]
+6.8 +3.9 82 +2 +2 1008.4 1007.8
21 22.06 В 7 20 км 9/9 600 м
[Sc]
+4.5 +3.1 91 -1 -1 1007.0 1006.4
00 23.06 В 7 20 км 9/9 600 м
[Sc]
+3.3 +2.6 95 -3 -3 1006.4 1005.7
03 23.06 В 7
{11}
20 км 9/9 600 м
[Sc]
+4.1 +3.2 94 -2 -2 1004.3 1003.6 +3.1
06 23.06 СВ 5
{11}
20 км 8/8 600 м
[Sc]
+5.4 +2.8 83 +1 +2 1004.5 1003.9
09 23.06 СВ 5 20 км 8/8 600 м
[Sc]
+6.1 +2.5 78 +2 +3 1005.8 1005.2
12 23.06 СЗ 4 20 км 8/8 600 м
[Sc]
+7.1 +3.1 76 +4 +5 1007.7 1007.0
15 23.06 С 8-11
{11}
20 км пыльный позёмок 5/5 600 м
[Sc]
+5.7 +2.7 81 0 0 1009.5 1008.9 +7.1
18 23.06 С 6
{11}
20 км 8/8 600 м
[Sc]
+4.3 +2.0 85 -1 -1 1011.6 1011.0
21 23.06 С 6
{10}
20 км 10/10 600 м
[Sc]
+4.0 +3.4 96 -2 -2 1012.5 1011.9
00 24.06 СЗ 6
{10}
20 км 10/10 600 м
[Sc]
+4.7 +4.1 96 -1 -1 1013.1 1012.5
03 24.06 С 6
{10}
20 км 10/10 600 м
[Sc]
+5.1 +3.9 92 -0 -0 1014.1 1013.5 +3.8
06 24.06 СЗ 7
{11}
20 км 10/10 300 м
[Cb calv]
+4.7 +4.1 96 -1 -1 1015.6 1015.0
09 24.06 СЗ 7-10
{11}
20 км 9/9 300 м
[Cb calv]
+6.3 +4.6 89 +1 +1 1016.7 1016.1
12 24.06 СЗ 7-10
{11}
20 км 10/10 300 м
[Cb calv]
+5.5 +4.3 92 0 0 1018.4 1017.8
15 24.06 С 7-10
{11}
20 км в посл. час ливневой дождь 10/10 300 м
[Cb calv]
+5.3 +4.5 95 -0 -0 1019.7 1019.1 +6.4 0.0
18 24.06 СЗ 7-10
{11}
20 км {ливн. осадки} 9/9 300 м
[Cb calv]
+5.6 +3.5 86 0 0 1020.2 1019.6
21 24.06 СЗ 6
{10}
20 км 10/10 300 м
[Cb calv]
+4.7 +3.0 89 -1 -1 1020.7 1020.1
00 25.06 СЗ 6
{11}
20 км {ливн. осадки} 10/10 300 м
[Cb calv]
+4.9 +4.0 94 -0 -0 1020.1 1019.5
03 25.06 СЗ 6
{11}
20 км {ливн. осадки} 9/5 300 м
[Cb calv Ac trans Cc]
+5.8 +3.3 84 +1 +1 1020.6 1020.0 +4.3 0.0
06 25.06 З 6
{10}
20 км {ливн. осадки} 10/10 600 м
[Sc]
+6.1 +5.4 95 +1 +1 1020.6 1020.0
09 25.06 З 6 20 км 10/10 600 м
[Sc]
+7.2 +6.1 93 +3 +3 1021.1 1020.5
12 25.06 З 6 20 км 4/3 600 м
[Cu Sc Cc]
+8.4 +6.5 88 +4 +7 1021.1 1020.5
15 25.06 З 5 20 км 8/8 600 м
[Sc]
+7.7 +6.3 91 +4 +4 1020.4 1019.8 +8.7
18 25.06 З 2 20 км {ливн. осадки} 9/9 600 м
[Sc]
+7.5 +6.3 92 +5 +5 1020.0 1019.4
21 25.06 З 3 20 км 9/9 600 м
[Sc]
+7.5 +6.3 92 +5 +5 1019.5 1018.9
00 26.06 З 3 20 км 3/3 600 м
[Sc]
+6.9 +5.7 92 +4 +4 1019.2 1018.5
03 26.06 З 3 20 км 8/8 600 м
[Sc]
+7.7 +6.1 90 +5 +5 1018.9 1018.3 +6.7 0.0

 

Местоположение метеостанции Шойна (Ненецкий АО, Россия): широта 67.88 долгота 44.17 высота над уровнем моря 8 м.

В архиве по умолчанию представлена погода в Шойне за последнюю неделю. Архивные данные за месяц целиком и за предыдущие месяцы, начиная с января 2011 года, Вы можете получить, выбрав интересующий диапазон дат из раскрывающегося списка и нажав кнопку "Ввод!".


*Определитесь, кто Вы:
робот инопланетянин человек

Внимание! Время в таблицах - всемирное. Для получения местного времени необходимо прибавить поправку, которая равна 3 ч.

Смотрите также архив погоды в соседних городах и на ближайших метеорологических станциях:

Погода в Канином Носе (Ненецкий АО, Россия) (93 км)
Погода на Мысе Микулкин (Ненецкий АО, Россия) (105 км)
Погода в Неси (Ненецкий АО, Россия) (144 км)
Погода на Моржовец Острове (Архангельская область, Россия) (148 км)
Погода в Абрамовском маяке (Архангельская область, Россия) (172 км)
Погода в Святом Носе (Мурманская область, Россия) (186 км)
Погода в Индиге (Ненецкий АО, Россия) (191 км)
Погода в Иоканьге (Мурманская область, Россия) (196 км)
Погода в Нижней Пеше (Ненецкий АО, Россия) (199 км)
Погода в Каневке (Мурманская область, Россия) (209 км)

Пояснения к столбцам:

Ветер - указаны скорость ветра в м/с - средняя за 10 мин, порывы в срок и между сроками (в фигурных скобках) и направление, откуда дует ветер: С - северный, СВ - северо-восточный, В - восточный, ЮВ - юго-восточный, Ю - южный, ЮЗ - юго-западный, З - западный, СЗ - северо-западный.
Видимость - горизонтальная дальность видимости в метрах или километрах. При видимости от 1 до 10 км при отсутствии осадков обычно наблюдается дымка, при ухудшении видимости до 1 км и менее - туман. В сухую погоду видимость может ухудшаться дымом, пылью или мглою.
Явления - указаны атмосферные явления, наблюдавшиеся в срок или в последний час перед сроком; фигурными скобками обозначены явления, наблюдавшиеся между сроками (за 1-3 часа до срока); квадратными скобками обозначены град или гололедные отложения с указанием их диаметра в мм.
Облачность - указаны через наклонную черту общая и нижняя облачность в баллах и высота нижней границы облаков в метрах; квадратными скобками обозначены формы облаков: Ci - перистые, Cs - перисто-слоистые, Cc - перисто-кучевые, Ac - высококучевые, As - высокослоистые, Sc - слоисто-кучевые, Ns - слоисто-дождевые, Cu - кучевые, Cb - кучево-дождевые. Подробнее классификацию облаков см. в Атласе облаков (PDF).
T - Температура воздуха - температура, измеренная на высоте 2 м над землей.
Td - Температура точки росы - температура, при понижении до которой содержащийся в воздухе водяной пар достигнет насыщения.
f - Относительная влажность воздуха - влажноcть воздуха, измеренная на высоте 2 м над землей.
Te - Эффективная температура - температура, которую ощущает одетый по сезону человек в тени. Характеристика душности погоды. При расчете учитывается влияние влажности воздуха и скорости ветра на теплоощущения человека.
Tes - Эффективная температура на солнце - температура, которую ощущает человек, с поправкой на солнечный нагрев. Характеристика знойности погоды. Зависит от высоты солнца над горизонтом, облачности и скорости ветра. Ночью, в пасмурную погоду, а также при ветре 12 м/с и более поправка равна нулю.
P - Атмосферное давление - приведенное к уровню моря атмосферное давление.
Po - Атмосферное давление - измеренное на уровне метеостанции атмосферное давление.
Tmin - Минимальная температура - минимум температуры воздуха на высоте 2 м над землей.
Tmax - Максимальная температура - максимум температуры воздуха на высоте 2 м над землей.
R - Количество осадков - Количество выпавших осадков за период времени, мм. При наведении курсора мыши на число - период времени, за который выпало указанное количество осадков.
R24 - Количество осадков - Количество выпавших осадков за 24 часа, мм.
S - Снежный покров - Высота снежного покрова, см. При наведении курсора мыши на число - состояние снежного покрова и степень покрытия местности в баллах.